timestamp,wind_dir_avg,wind_spd_avg,wind_spd_max_dir,wind_spd_gust,battery_voltage,lat,long
2021-06-12 00:04:01+00:00,282.0,4.2,283.0,4.45,13.21,47.59359,-54.27349
2021-06-12 00:14:01+00:00,273.0,4.36,277.0,4.6,12.65,47.59359,-54.27349
2021-06-12 00:24:01+00:00,271.0,3.6,273.0,3.93,12.65,47.59359,-54.27349
2021-06-12 00:34:01+00:00,274.0,4.19,276.0,4.5,12.65,47.59359,-54.27349
2021-06-12 00:44:01+00:00,271.0,4.07,269.0,5.0,12.65,47.59359,-54.27349
2021-06-12 00:54:01+00:00,268.0,3.87,270.0,4.1,12.65,47.59359,-54.27349
2021-06-12 01:04:01+00:00,270.0,4.41,269.0,4.58,12.65,47.59359,-54.27349
2021-06-12 01:14:01+00:00,264.0,3.75,265.0,4.18,12.65,47.59359,-54.27349
2021-06-12 01:24:01+00:00,258.0,3.51,260.0,3.83,12.65,47.59359,-54.27349
2021-06-12 01:34:01+00:00,211.0,3.55,204.0,4.09,12.65,47.59359,-54.27349
2021-06-12 01:44:01+00:00,225.0,4.33,219.0,4.99,12.65,47.59359,-54.27349
2021-06-12 01:54:01+00:00,234.0,3.11,231.0,3.45,12.65,47.59359,-54.27349
2021-06-12 02:04:01+00:00,238.0,2.74,240.0,3.81,12.65,47.59359,-54.27349
2021-06-12 02:14:01+00:00,265.0,4.43,271.0,5.11,12.57,47.59359,-54.27349
2021-06-12 02:24:01+00:00,276.0,4.42,281.0,5.14,12.57,47.59359,-54.27349
2021-06-12 02:34:01+00:00,278.0,4.63,287.0,5.35,12.57,47.59359,-54.27349
2021-06-12 02:44:01+00:00,271.0,4.63,270.0,5.09,12.57,47.59359,-54.27349
2021-06-12 02:54:01+00:00,275.0,4.79,276.0,5.36,12.57,47.59359,-54.27349
2021-06-12 03:04:01+00:00,280.0,3.96,280.0,4.54,12.57,47.59359,-54.27349
2021-06-12 03:14:01+00:00,288.0,5.42,288.0,6.14,12.57,47.59359,-54.27349
2021-06-12 03:24:01+00:00,283.0,5.74,277.0,6.39,12.57,47.59359,-54.27349
2021-06-12 03:34:01+00:00,282.0,5.35,283.0,6.22,12.57,47.59359,-54.27349
2021-06-12 03:44:01+00:00,280.0,5.54,276.0,6.1,12.57,47.59359,-54.27349
2021-06-12 03:54:01+00:00,272.0,5.51,276.0,6.3,12.57,47.59359,-54.27349
2021-06-12 04:04:01+00:00,276.0,5.14,273.0,5.74,12.57,47.59359,-54.27349
2021-06-12 04:14:01+00:00,270.0,7.05,271.0,8.21,12.57,47.59359,-54.27349
2021-06-12 04:24:01+00:00,270.0,7.55,270.0,8.51,12.57,47.59359,-54.27349
2021-06-12 04:34:01+00:00,269.0,6.58,269.0,7.2,12.57,47.59359,-54.27349
2021-06-12 04:44:01+00:00,267.0,6.42,263.0,7.43,12.57,47.59359,-54.27349
2021-06-12 04:54:01+00:00,265.0,7.33,264.0,8.31,12.57,47.59359,-54.27349
2021-06-12 05:04:01+00:00,269.0,6.46,268.0,7.86,12.57,47.59359,-54.27349
2021-06-12 05:14:01+00:00,269.0,6.52,267.0,7.79,12.49,47.59359,-54.27349
2021-06-12 05:24:01+00:00,265.0,6.06,269.0,7.31,12.49,47.59359,-54.27349
2021-06-12 05:34:01+00:00,271.0,7.26,273.0,8.37,12.49,47.59359,-54.27349
2021-06-12 05:44:01+00:00,273.0,6.22,276.0,6.89,12.49,47.59359,-54.27349
2021-06-12 05:54:01+00:00,272.0,5.34,273.0,5.86,12.49,47.59359,-54.27349
2021-06-12 06:04:01+00:00,261.0,6.1,260.0,6.92,12.49,47.59359,-54.27349
2021-06-12 06:14:00+00:00,232.0,5.01,232.0,5.9,12.49,47.59359,-54.27349
2021-06-12 06:24:00+00:00,234.0,5.01,238.0,5.47,12.49,47.59359,-54.27349
2021-06-12 06:34:00+00:00,233.0,5.15,235.0,5.78,12.49,47.59359,-54.27349
2021-06-12 06:44:00+00:00,234.0,4.74,242.0,5.83,12.49,47.59359,-54.27349
2021-06-12 06:54:00+00:00,243.0,4.61,243.0,4.98,12.49,47.59359,-54.27349
2021-06-12 07:04:00+00:00,236.0,3.91,237.0,4.24,12.49,47.59359,-54.27349
2021-06-12 07:14:01+00:00,235.0,3.81,234.0,4.19,12.49,47.59359,-54.27349
2021-06-12 07:24:01+00:00,221.0,4.42,218.0,5.09,12.49,47.59359,-54.27349
2021-06-12 07:34:01+00:00,218.0,5.19,217.0,5.92,12.49,47.59359,-54.27349
2021-06-12 07:44:01+00:00,212.0,7.28,214.0,8.03,12.49,47.59359,-54.27349
2021-06-12 07:54:01+00:00,213.0,7.15,214.0,7.75,12.49,47.59359,-54.27349
2021-06-12 08:04:01+00:00,216.0,5.99,216.0,6.55,12.49,47.59359,-54.27349
2021-06-12 08:14:01+00:00,214.0,6.96,214.0,7.69,12.49,47.59359,-54.27349
2021-06-12 08:24:01+00:00,210.0,6.66,209.0,7.56,12.49,47.59359,-54.27349
2021-06-12 08:34:01+00:00,211.0,6.7,209.0,7.34,12.49,47.59359,-54.27349
2021-06-12 08:44:01+00:00,215.0,6.16,217.0,6.89,12.49,47.59359,-54.27349
2021-06-12 08:54:01+00:00,220.0,6.02,218.0,6.57,12.49,47.59359,-54.27349
2021-06-12 09:04:01+00:00,214.0,6.02,211.0,6.81,12.49,47.59359,-54.27349
2021-06-12 09:14:00+00:00,213.0,5.87,213.0,6.57,12.73,47.59359,-54.27349
2021-06-12 09:24:00+00:00,218.0,5.71,218.0,6.29,12.73,47.59359,-54.27349
2021-06-12 09:34:00+00:00,222.0,6.53,222.0,7.2,12.73,47.59359,-54.27349
2021-06-12 09:44:00+00:00,222.0,5.92,224.0,7.07,12.73,47.59359,-54.27349
2021-06-12 09:54:00+00:00,225.0,6.39,230.0,7.19,12.73,47.59359,-54.27349
2021-06-12 10:04:00+00:00,232.0,6.31,232.0,7.46,12.73,47.59359,-54.27349
2021-06-12 10:14:01+00:00,232.0,6.28,232.0,7.34,13.6,47.59359,-54.27349
2021-06-12 10:24:01+00:00,231.0,6.05,231.0,6.94,13.6,47.59359,-54.27349
2021-06-12 10:34:01+00:00,226.0,6.11,220.0,6.86,13.6,47.59359,-54.27349
2021-06-12 10:44:01+00:00,222.0,6.27,218.0,7.31,13.6,47.59359,-54.27349
2021-06-12 10:54:01+00:00,222.0,6.01,227.0,6.75,13.6,47.59359,-54.27349
2021-06-12 11:04:01+00:00,208.0,6.19,210.0,7.4,13.6,47.59359,-54.27349
2021-06-12 11:14:01+00:00,209.0,6.34,206.0,6.93,13.76,47.59359,-54.27349
2021-06-12 11:24:01+00:00,215.0,4.98,218.0,5.54,13.76,47.59359,-54.27349
2021-06-12 11:34:01+00:00,205.0,7.04,204.0,7.83,13.76,47.59359,-54.27349
2021-06-12 11:44:01+00:00,199.0,5.45,200.0,6.18,13.76,47.59359,-54.27349
2021-06-12 11:54:01+00:00,195.0,6.98,196.0,7.59,13.76,47.59359,-54.27349
2021-06-12 12:04:01+00:00,201.0,6.72,207.0,7.85,13.76,47.59359,-54.27349
2021-06-12 12:14:01+00:00,210.0,9.66,209.0,10.72,13.84,47.59359,-54.27349
2021-06-12 12:24:01+00:00,206.0,7.8,203.0,8.76,13.84,47.59359,-54.27349
2021-06-12 12:34:01+00:00,206.0,7.79,202.0,8.93,13.84,47.59359,-54.27349
2021-06-12 12:44:01+00:00,203.0,8.05,210.0,8.85,13.84,47.59359,-54.27349
2021-06-12 12:54:01+00:00,204.0,8.79,205.0,10.28,13.84,47.59359,-54.27349
2021-06-12 13:04:01+00:00,201.0,8.11,202.0,9.66,13.84,47.59359,-54.27349
2021-06-12 13:14:01+00:00,205.0,9.83,208.0,10.54,14.08,47.59359,-54.27349
2021-06-12 13:24:01+00:00,206.0,10.01,204.0,10.95,14.08,47.59359,-54.27349
2021-06-12 13:34:01+00:00,207.0,10.0,206.0,11.53,14.08,47.59359,-54.27349
2021-06-12 13:44:01+00:00,208.0,9.96,204.0,10.96,14.08,47.59359,-54.27349
2021-06-12 13:54:01+00:00,210.0,8.92,212.0,10.08,14.08,47.59359,-54.27349
2021-06-12 14:04:01+00:00,208.0,8.35,206.0,9.25,14.08,47.59359,-54.27349
2021-06-12 14:14:01+00:00,206.0,9.35,208.0,10.27,13.76,47.59359,-54.27349
2021-06-12 14:24:01+00:00,213.0,8.84,209.0,9.84,13.76,47.59359,-54.27349
2021-06-12 14:34:01+00:00,210.0,8.5,212.0,10.03,13.76,47.59359,-54.27349
2021-06-12 14:44:01+00:00,210.0,9.72,209.0,11.18,13.76,47.59359,-54.27349
2021-06-12 14:54:01+00:00,210.0,9.38,201.0,12.32,13.76,47.59359,-54.27349
2021-06-12 15:04:01+00:00,213.0,10.31,215.0,11.41,13.76,47.59359,-54.27349
2021-06-12 15:14:01+00:00,204.0,8.67,205.0,9.76,13.84,47.59359,-54.27349
2021-06-12 15:24:01+00:00,202.0,9.38,194.0,11.7,13.84,47.59359,-54.27349
2021-06-12 15:34:01+00:00,197.0,9.21,200.0,10.87,13.84,47.59359,-54.27349
2021-06-12 15:44:01+00:00,200.0,9.53,203.0,11.4,13.84,47.59359,-54.27349
2021-06-12 15:54:01+00:00,205.0,9.6,209.0,10.69,13.84,47.59359,-54.27349
2021-06-12 16:04:01+00:00,215.0,10.65,216.0,11.78,13.84,47.59359,-54.27349
2021-06-12 16:14:01+00:00,214.0,9.66,210.0,11.37,13.76,47.59359,-54.27349
2021-06-12 16:24:01+00:00,213.0,10.93,213.0,11.93,13.76,47.59359,-54.27349
2021-06-12 16:34:01+00:00,208.0,11.89,209.0,13.18,13.76,47.59359,-54.27349
2021-06-12 16:44:01+00:00,205.0,11.93,201.0,13.26,13.76,47.59359,-54.27349
2021-06-12 16:54:01+00:00,209.0,11.19,209.0,12.16,13.76,47.59359,-54.27349
2021-06-12 17:04:01+00:00,200.0,9.02,199.0,9.98,13.76,47.59359,-54.27349
2021-06-12 17:14:01+00:00,197.0,8.84,197.0,10.09,13.84,47.59359,-54.27349
2021-06-12 17:24:01+00:00,205.0,8.53,213.0,9.81,13.84,47.59359,-54.27349
2021-06-12 17:34:01+00:00,215.0,9.73,210.0,11.21,13.84,47.59359,-54.27349
2021-06-12 17:44:01+00:00,213.0,10.54,207.0,12.0,13.84,47.59359,-54.27349
2021-06-12 17:54:01+00:00,209.0,12.22,203.0,14.7,13.84,47.59359,-54.27349
2021-06-12 18:04:01+00:00,212.0,12.73,216.0,13.83,13.84,47.59359,-54.27349
2021-06-12 18:14:01+00:00,213.0,12.66,209.0,14.25,13.84,47.59359,-54.27349
2021-06-12 18:24:01+00:00,212.0,11.36,209.0,14.11,13.84,47.59359,-54.27349
2021-06-12 18:34:01+00:00,214.0,11.71,209.0,15.68,13.84,47.59359,-54.27349
2021-06-12 18:44:01+00:00,212.0,11.44,209.0,13.13,13.84,47.59359,-54.27349
2021-06-12 18:54:01+00:00,210.0,11.98,214.0,13.32,13.84,47.59359,-54.27349
2021-06-12 19:04:01+00:00,213.0,12.32,216.0,13.32,13.84,47.59359,-54.27349
2021-06-12 19:14:01+00:00,213.0,12.34,210.0,13.67,13.76,47.59359,-54.27349
2021-06-12 19:24:01+00:00,217.0,11.25,209.0,13.25,13.76,47.59359,-54.27349
2021-06-12 19:34:01+00:00,214.0,12.12,209.0,14.18,13.76,47.59359,-54.27349
2021-06-12 19:44:01+00:00,214.0,11.42,214.0,12.44,13.76,47.59359,-54.27349
2021-06-12 19:54:01+00:00,215.0,11.01,218.0,13.05,13.76,47.59359,-54.27349
2021-06-12 20:04:01+00:00,212.0,10.73,208.0,12.39,13.76,47.59359,-54.27349
2021-06-12 20:14:01+00:00,212.0,11.74,213.0,13.6,13.92,47.59359,-54.27349
2021-06-12 20:24:01+00:00,214.0,11.21,216.0,12.91,13.92,47.59359,-54.27349
2021-06-12 20:34:01+00:00,216.0,11.79,218.0,13.73,13.92,47.59359,-54.27349
2021-06-12 20:44:01+00:00,216.0,9.66,217.0,11.59,13.92,47.59359,-54.27349
2021-06-12 20:54:01+00:00,215.0,10.05,216.0,11.92,13.92,47.59359,-54.27349
2021-06-12 21:04:01+00:00,216.0,10.28,231.0,12.29,13.92,47.59359,-54.27349
2021-06-12 21:14:01+00:00,215.0,10.18,217.0,11.73,13.84,47.59359,-54.27349
2021-06-12 21:24:01+00:00,215.0,9.44,216.0,10.51,13.84,47.59359,-54.27349
2021-06-12 21:34:01+00:00,218.0,10.99,221.0,13.14,13.84,47.59359,-54.27349
2021-06-12 21:44:01+00:00,215.0,9.64,209.0,11.01,13.84,47.59359,-54.27349
2021-06-12 21:54:01+00:00,217.0,11.14,216.0,12.7,13.84,47.59359,-54.27349
2021-06-12 22:04:01+00:00,218.0,8.87,219.0,10.79,13.84,47.59359,-54.27349
2021-06-12 22:14:01+00:00,217.0,9.89,221.0,12.08,13.6,47.59359,-54.27349
2021-06-12 22:24:01+00:00,216.0,10.69,216.0,12.16,13.6,47.59359,-54.27349
2021-06-12 22:34:01+00:00,216.0,9.88,222.0,11.64,13.6,47.59359,-54.27349
2021-06-12 22:44:01+00:00,216.0,9.36,215.0,10.94,13.6,47.59359,-54.27349
2021-06-12 22:54:01+00:00,218.0,7.32,215.0,8.07,13.6,47.59359,-54.27349
2021-06-12 23:04:01+00:00,208.0,8.19,207.0,9.31,13.6,47.59359,-54.27349
2021-06-12 23:14:00+00:00,204.0,7.48,209.0,8.75,13.13,47.59359,-54.27349
2021-06-12 23:24:00+00:00,201.0,7.28,202.0,8.09,13.13,47.59359,-54.27349
2021-06-12 23:34:00+00:00,203.0,7.26,197.0,9.61,13.13,47.59359,-54.27349
2021-06-12 23:44:00+00:00,206.0,7.71,198.0,10.08,13.13,47.59359,-54.27349
2021-06-12 23:54:00+00:00,213.0,6.65,217.0,7.46,13.13,47.59359,-54.27349
